Simultaneous Nadir Overpasses (SNOs) Predictions

Prediction of SNOs over PacNW region [( 10.00, 139.50) to ( 22.70, 165.60)] between NOAA-19 and NPP Satellites:

Table of predicted SNOs over PacNW region for the next 30.0 days since TLE Epoch: 4/4/2014
Index Date (NOAA-19) Time (NOAA-19) NOAA-19 Lat,Lon Date (NPP) Time (NPP) NPP Lat,Lon Distance(km) Time Diff (sec)
1 04/12/2014 15:50:50 22.59, 153.16 04/12/2014 15:53:54 23.86, 147.81 565.27 184
2 04/13/2014 03:07:10 22.67, 156.61 04/13/2014 03:06:41 21.80, 152.19 464.62 29
3 04/13/2014 15:43:19 10.01, 152.90 04/13/2014 15:39:42 6.99, 148.55 584.99 217
4 04/25/2014 15:08:11 22.62, 163.97 04/25/2014 15:09:57 23.80, 158.86 538.09 106
5 04/26/2014 04:06:34 22.67, 141.89 04/26/2014 04:04:14 21.86, 137.87 423.45 140




NCC Satellite Simultaneous Nadir Overpasses (SNOs) Prediction Service
